Content
SEND FEEDBACK

Daily
Averages
Monthly
Summary
United States of America

UPI, GUAM


Home > North America > United States > Guam
Elevation: 53 feet     Latitude: 13 34N     Longitude: 144 55E

WEATHER
 
SELECT A DAY
Number of Records: 213,760;   Date Range: 1/1/95 - 10/19/14
 
SHARE

PRINT THIS DATA

[ ← Previous Day ]
WEATHER ALMANAC - MARCH 12, 2013
[ Next Day → ]
[ °C ]   °F
Weather ElementAverageHighLow
Temperature79.5 °F84 °F (1:54 pm)77 °F (3:35 am)
Dewpoint74.3 °F77 °F (9:57 am)71.6 °F (11:34 pm)
Humidity84.3 %90 % (3:54 am)69 % (1:54 pm)
Barometer29.86 in29.91 in (10:47 pm)29.79 in (3:54 pm)
Wind Speed12.2 mph20.7 mph (12:09 pm)
Wind Gust27.6 mph (12:51 pm)
Weather ElementAverage
Visibility6.5 mi
Wind DirectionENE (57.3 °)

Weather ElementTotal
Precipitation0.51 in
Cooling Degree Days15.5 (Base 65)
Growing Degree Days30.5 (Base 50)
Averaged from 64 records on March 12, 2013
WEATHER CONDITIONS BREAKOUT
WIND DIRECTION BREAKOUT
WEATHER BY HOUR - MARCH 12, 2013
[ °C ]   °F
Local TimeTemperatureDewpointHumidityBarometerVisibilityWind DirectionWind SpeedGust SpeedPrecipitationEventsConditions
1:32 AM78.8 °F75.2 °F89 %29.87 in2.5 miENE (70°)9.2 mph0.03 inRainRain
1:41 AM78.8 °F75.2 °F89 %29.87 in5.0 miENE (70°)6.9 mph0.04 inRainLight Rain
1:54 AM78.1 °F73.9 °F87 %29.84 in10.0 miNE (50°)9.2 mph0.04 inOvercast
2:54 AM78.1 °F73.9 °F87 %29.82 in10.0 miNE (50°)10.4 mph0.01 inMostly Cloudy
3:35 AM77.0 °F73.4 °F89 %29.84 in2.5 miEast (80°)15.0 mph0.00 inRainRain
3:47 AM77.0 °F73.4 °F89 %29.85 in5.0 miEast (80°)11.5 mph0.01 inRainLight Rain
3:54 AM77.0 °F73.9 °F90 %29.82 in10.0 miEast (80°)9.2 mph0.01 inOvercast
4:04 AM78.8 °F73.4 °F83 %29.84 in10.0 miEast (80°)8.1 mphMostly Cloudy
4:36 AM78.8 °F73.4 °F83 %29.85 in10.0 miEast (90°)4.6 mphScattered Clouds
4:54 AM78.1 °F73.9 °F87 %29.82 in10.0 miENE (60°)4.6 mphScattered Clouds
5:54 AM78.1 °F73.0 °F84 %29.83 in10.0 miEast (80°)10.4 mph0.01 inOvercast
6:16 AM78.8 °F73.4 °F83 %29.86 in10.0 miEast (90°)5.8 mph0.00 inRainLight Rain
6:25 AM78.8 °F73.4 °F83 %29.86 in10.0 miEast (80°)4.6 mph0.00 inRainLight Rain
6:34 AM78.8 °F73.4 °F83 %29.87 in4.0 miEast (90°)5.8 mph0.01 inRainRain
6:45 AM78.8 °F73.4 °F83 %29.87 in3.0 miEast (80°)4.6 mph0.02 inRainLight Rain
6:52 AM78.8 °F75.2 °F89 %29.87 in6.0 miENE (70°)9.2 mph0.03 inRainLight Rain
6:54 AM78.1 °F75.0 °F90 %29.85 in9.0 miEast (80°)10.4 mph0.03 inRainLight Rain
7:13 AM78.8 °F73.4 °F83 %29.88 in10.0 miEast (80°)6.9 mph0.00 inOvercast
7:54 AM81.0 °F73.9 °F79 %29.86 in10.0 miEast (90°)10.4 mph0.00 inOvercast
8:54 AM82.9 °F75.0 °F77 %29.87 in10.0 miENE (70°)11.5 mphMostly Cloudy
9:34 AM82.4 °F73.4 °F74 %29.90 in10.0 miENE (60°)10.4 mphMostly Cloudy
9:48 AM80.6 °F75.2 °F84 %29.90 in2.0 miNE (40°)13.8 mph0.03 inRainLight Rain
9:49 AM81.0 °F75.9 °F85 %29.88 in2.0 miNE (40°)12.7 mph0.03 inRainLight Rain
9:57 AM82.4 °F77.0 °F84 %29.90 in7.0 miNE (50°)12.7 mphOvercast
10:42 AM82.4 °F75.2 °F79 %29.90 in4.0 miNE (50°)16.1 mphRainLight Rain
10:49 AM80.6 °F75.2 °F84 %29.90 in3.0 miNNE (30°)13.8 mphRainLight Rain
10:54 AM81.0 °F75.9 °F85 %29.87 in2.5 miNNE (20°)12.7 mphRainLight Rain
10:57 AM82.4 °F77.0 °F84 %29.89 in4.0 miNNE (30°)15.0 mph0.00 inRainLight Rain
11:08 AM80.6 °F75.2 °F84 %29.89 in4.0 miNE (40°)16.1 mph0.00 inRainLight Rain
11:51 AM80.6 °F75.2 °F84 %29.88 in3.0 miENE (60°)16.1 mph23.0 mph0.00 inRainLight Rain
11:54 AM80.1 °F75.0 °F85 %29.86 in4.0 miENE (70°)16.1 mph23.0 mph0.00 inRainLight Rain
12:09 PM82.4 °F75.2 °F79 %29.87 in9.0 miNE (50°)20.7 mph25.3 mph0.00 inRainLight Rain
12:16 PM82.4 °F75.2 °F79 %29.87 in10.0 miNE (50°)15.0 mph25.3 mph0.00 inOvercast
12:51 PM80.6 °F75.2 °F84 %29.86 in2.5 miNE (40°)18.4 mph27.6 mph0.00 inRainLight Rain
12:54 PM80.1 °F75.0 °F85 %29.83 in2.5 miNE (40°)18.4 mph27.6 mph0.00 inRainLight Rain
12:58 PM80.6 °F75.2 °F84 %29.85 in3.0 miNE (40°)17.3 mph0.00 inRainLight Rain
1:12 PM82.4 °F75.2 °F79 %29.84 in10.0 miNE (50°)16.1 mph0.00 inOvercast
1:26 PM82.4 °F75.2 °F79 %29.84 in10.0 miNE (50°)18.4 mph0.00 inMostly Cloudy
1:54 PM84.0 °F73.0 °F69 %29.81 in10.0 miNE (50°)19.6 mph25.3 mph0.00 inMostly Cloudy
2:51 PM80.6 °F75.2 °F84 %29.82 in1.8 miENE (60°)19.6 mph26.5 mph0.01 inRainRain
2:54 PM80.1 °F75.0 °F85 %29.81 in1.5 miENE (60°)17.3 mph26.5 mph0.01 inRainRain
3:03 PM78.8 °F75.2 °F89 %29.82 in3.0 miENE (60°)18.4 mph0.00 inRainLight Rain
3:13 PM80.6 °F75.2 °F84 %29.81 in9.0 miENE (70°)15.0 mph24.2 mph0.00 inOvercast
3:54 PM82.0 °F75.0 °F79 %29.79 in5.0 miNE (40°)13.8 mphRainLight Rain
4:54 PM81.0 °F75.0 °F82 %29.81 in10.0 miENE (60°)11.5 mph0.01 inRainLight Rain
5:01 PM80.6 °F75.2 °F84 %29.83 in10.0 miNE (50°)8.1 mphOvercast
5:54 PM80.1 °F73.9 °F81 %29.81 in10.0 miNE (40°)11.5 mphMostly Cloudy
6:03 PM80.6 °F73.4 °F79 %29.83 in10.0 miNNE (30°)10.4 mphOvercast
6:54 PM79.0 °F73.9 °F84 %29.83 in10.0 miNNE (30°)13.8 mphOvercast
7:24 PM78.8 °F73.4 °F83 %29.86 in3.0 miENE (60°)16.1 mph23.0 mph0.01 inRainLight Rain
7:42 PM77.0 °F73.4 °F89 %29.86 in8.0 miNE (50°)10.4 mph0.01 inOvercast
7:54 PM77.0 °F73.0 °F88 %29.85 in8.0 miNE (50°)13.8 mph0.01 inOvercast
8:54 PM78.1 °F75.0 °F90 %29.86 in10.0 miNNE (30°)5.8 mph0.03 inOvercast
9:24 PM78.8 °F73.4 °F83 %29.90 in4.0 miNE (40°)12.7 mph0.00 inRainLight Rain
9:33 PM78.8 °F73.4 °F83 %29.90 in3.0 miENE (60°)13.8 mph0.00 inRainLight Rain
9:37 PM77.0 °F73.4 °F89 %29.90 in3.0 miNE (50°)11.5 mph0.00 inRainLight Rain
9:43 PM77.0 °F73.4 °F89 %29.90 in4.0 miNE (40°)9.2 mph0.01 inRainLight Rain
9:54 PM77.0 °F73.9 °F90 %29.88 in4.0 miNE (50°)12.7 mph0.02 inRainLight Rain
10:03 PM77.0 °F73.4 °F89 %29.90 in9.0 miNE (50°)9.2 mph0.00 inOvercast
10:23 PM78.8 °F73.4 °F83 %29.90 in10.0 miNE (50°)10.4 mph0.00 inOvercast
10:47 PM77.0 °F73.4 °F89 %29.91 in2.5 miEast (80°)10.4 mph0.01 inRainLight Rain
10:54 PM77.0 °F73.9 °F90 %29.89 in3.0 miENE (70°)11.5 mph0.02 inRainRain
11:34 PM77.0 °F71.6 °F83 %29.91 in7.0 miNE (50°)15.0 mph0.03 inOvercast
11:54 PM77.0 °F73.0 °F88 %29.88 in7.0 miENE (60°)11.5 mph0.03 inOvercast
Hourly data recorded from PGUM, located miles away from Upi, Guam







STORIES FROM OUR PARTNERS